Hanford, WA
on Tuesday, November 13, 2012

Tuesday
Previous Day Next Day
Daily Summary
 ActualAverage (KMWH)Record (KMWH)
Temperature
Mean Temperature °F 38°F  
Max Temperature 41°F 47°F 60°F (1981)
Min Temperature 37°F 30°F 10°F (1985)
Degree Days
Heating Degree Days 26 26  
Month to date heating degree days 314  
Since 1 July heating degree days 951  
Cooling Degree Days 0 0  
Month to date cooling degree days 0  
Year to date cooling degree days 615  
Moisture
Dew Point 36°F   
Average Humidity 88    
Maximum Humidity 93    
Minimum Humidity 82    
Precipitation
Precipitation 0.00 in 0.04 in 0.38 in (2005)
Month to date precipitation 0.50  
Year to date precipitation 6.97  
Wind
Wind Speed 5 mph   
Max Wind Speed 8 mph   
Max Gust Speed mph   
Visibility 11 miles   
Events     

Key: T is trace of precipitation, MM is missing value
Source: NWS Daily Summary
Time(PST)TemperatureDew PointHumidity Pressure Visibility Wind DirectionWind SpeedGust SpeedPrecipitationEvents Conditions
12:50 AM 38.5°F 35.1°F 87% 30.30 in 15.0 miles NW 4.6 mph - N/A   Overcast
1:50 AM 38.3°F 35.8°F 91% 30.30 in 15.0 miles NW 5.8 mph - N/A   Overcast
2:50 AM 38.1°F 35.2°F 89% 30.30 in 15.0 miles NW 4.6 mph - N/A   Overcast
3:50 AM 37.8°F 35.2°F 91% 30.30 in 15.0 miles NNE 4.6 mph - N/A   Overcast
4:50 AM 37.8°F 34.7°F 89% 30.30 in 15.0 miles NW 4.6 mph - N/A   Overcast
5:50 AM 37.2°F 34.5°F 90% 30.30 in 15.0 miles NNE 3.5 mph - N/A   Overcast
6:50 AM 37.2°F 34.9°F 91% 30.30 in 12.0 miles NNW 2.3 mph - N/A   Overcast
7:50 AM 37.8°F 35.4°F 91% 30.30 in 12.0 miles East 2.3 mph - N/A   Overcast
8:50 AM 38.1°F 35.1°F 89% 30.30 in 8.0 miles SE 3.5 mph - N/A   Overcast
9:50 AM 38.8°F 36.3°F 91% 30.29 in 6.0 miles NNW 3.5 mph - N/A   Overcast
10:50 AM 39.7°F 36.1°F 87% 30.29 in 7.0 miles NNE 4.6 mph - N/A   Overcast
11:50 AM 40.1°F 36.3°F 86% 30.28 in 7.0 miles North 4.6 mph - N/A   Overcast
12:50 PM 41.0°F 36.3°F 83% 30.27 in 8.0 miles West 3.5 mph - N/A   Overcast
1:50 PM 41.4°F 36.3°F 82% 30.26 in 12.0 miles NW 3.5 mph - N/A   Overcast
2:50 PM 40.8°F 36.1°F 83% 30.25 in 7.0 miles NW 8.1 mph - N/A   Overcast
3:50 PM 39.9°F 36.0°F 86% 30.22 in 9.0 miles WNW 6.9 mph - N/A   Overcast
4:50 PM 39.4°F 35.6°F 86% 30.21 in 9.0 miles NW 8.1 mph - N/A   Overcast
5:50 PM 38.3°F 35.1°F 88% 30.21 in 10.0 miles NNE 4.6 mph - N/A   Overcast
6:50 PM 38.3°F 35.2°F 89% 30.21 in 10.0 miles North 4.6 mph - N/A   Overcast
10:50 PM 38.1°F 35.6°F 91% 30.23 in 12.0 miles WNW 4.6 mph - N/A   Overcast
11:50 PM 37.8°F 35.8°F 93% 30.23 in 12.0 miles SSE 3.5 mph - N/A   Overcast
Moon Phase
Nov. 13 Nov. 13 Nov. 20 Nov. 28 Dec. 06
Sunrise:06:58 AM (PST) Moon Rise:06:43 AM (PST)11/13
Sunset:04:26 PM (PST) Moon Set:04:21 PM (PST)11/13

Copyright © 2014 The Weather Underground, Inc.